Location: Chateh
(58.6667°N, 118.6000°W)
Time: 09:50:13
(UTC+00:00)

O/OREOS (USA 219) - Pass Details

Date: 07 December 2023
Orbit: 621 x 646 km, 72.0° (Epoch: 22 May)

Event Time Altitude Azimuth Distance (km) Brightness Sun altitude
Exits shadow 12:02:18 13° 22° (NNE) 1,792 ? -32.5°
Drops below altitude 10° 12:03:30 10° 37° (NE) 2,010 ? -32.4°
Sets 12:06:40 0° 60° (ENE) 2,922 ? -32.0°
